Tracking 33744 objects as of 13-Apr-2026
HD Live streaming from Space Station
objects crossing your sky now

STARLINK-36842

Track STARLINK-36842 now!
10-day predictions
STARLINK-36842 is classified as:


NORAD ID: 67884
Int'l Code: 2026-035F
Perigee: 415.7 km
Apogee: 418.0 km
Inclination: 97.3 °
Period: 92.8 minutes
Semi major axis: 6787 km
RCS: Unknown
Launch date: February 21, 2026
Source: United States (US)
Launch site: AIR FORCE WESTERN TEST RANGE (AFWTR)
Your satellite tracking list
Your tracking list is empty




NASA's NSSDC Master Catalog

Two Line Element Set (TLE):
1 67884U 26035F   26102.91668981 -.00433364  00000-0 -75044-2 0  9995
2 67884  97.2846  36.9195 0001722  88.0918 322.6620 15.52402703  6365
Source of the keplerian elements: AFSPC